Litchfield, MN

11:57 AM CDT on October 18, 2017 (GMT -0500)
Litchfield Municipal

Weather History for KLJF - September, 2013

Change the Weather History Date:

Sunday, September 22, 2013

  Actual Average Record
Temperature  
Mean Temperature 62 °F -  
Max Temperature 78 °F 66 °F 91 °F (2017)
Min Temperature 46 °F 43 °F 27 °F (1983)
Degree Days  
Heating Degree Days 3    
Growing Degree Days 12 (Base 50)    
Moisture  
Dew Point 52 °F    
Average Humidity 72    
Maximum Humidity 100    
Minimum Humidity 42    
Precipitation  
Precipitation 0.00 in - - ()
Sea Level Pressure  
Sea Level Pressure 29.88 in    
Wind  
Wind Speed 9 mph (SE)    
Max Wind Speed 18 mph    
Max Gust Speed 30 mph    
Visibility 9 miles    
Events      
Averages and records for this station are not official NWS values.
T = Trace of Precipitation, MM = Missing Value Source: NWS Daily Summary

Daily Weather History Graph

Daily Weather History Graph

Search for Another Location

Airport or City:

Trip Planner

Search our weather history database for the weather conditions in past years. The results will help you decide how hot, cold, wet, or windy it might be!

Date:

Astronomy

Sep. 22, 2013 Rise Set
Actual Time 7:05 AM CDT 7:15 PM CDT
Civil Twilight 6:36 AM CDT 7:44 PM CDT
Nautical Twilight 6:01 AM CDT 8:18 PM CDT
Astronomical Twilight 5:26 AM CDT 8:53 PM CDT
Moon 8:54 PM CDT (9/22) 10:37 AM CDT (9/22)
Length of Visible Light 13h 08m
Length of Day
12h 09m
Waning Gibbous, 88% of the Moon is Illuminated
Sep 22
Waning Gibbous
Sep 26
Last Quarter
Oct 4
New
Oct 11
First Quarter
Oct 18
Full

Hourly Weather History & Observations

Time (CDT) Temp. Windchill Dew Point Humidity Pressure Visibility Wind Dir Wind Speed Gust Speed Precip Events Conditions
12:13 AM 50.0 °F - 48.2 °F 94% 29.94 in 5.0 mi Calm Calm - N/A   Clear
12:33 AM 48.2 °F - 46.4 °F 93% 29.94 in 10.0 mi ESE 6.9 mph - N/A   Clear
12:52 AM 48.2 °F - 48.2 °F 100% 29.94 in 10.0 mi ESE 5.8 mph - N/A   Clear
1:13 AM 48.2 °F - 46.4 °F 93% 29.94 in 10.0 mi ESE 5.8 mph - N/A   Clear
1:33 AM 48.2 °F - 46.4 °F 93% 29.94 in 10.0 mi ESE 6.9 mph - N/A   Scattered Clouds
1:52 AM 48.2 °F - 48.2 °F 100% 29.94 in 10.0 mi SE 5.8 mph - N/A   Scattered Clouds
2:13 AM 50.0 °F - 48.2 °F 94% 29.94 in 5.0 mi SE 4.6 mph - N/A   Scattered Clouds
2:33 AM 48.2 °F - 46.4 °F 93% 29.94 in 4.0 mi SE 4.6 mph - N/A   Scattered Clouds
2:53 AM 50.0 °F - 48.2 °F 94% 29.94 in 4.0 mi SE 6.9 mph - N/A   Scattered Clouds
3:13 AM 48.2 °F - 46.4 °F 93% 29.93 in 2.5 mi ESE 4.6 mph - N/A   Mist
3:32 AM 48.2 °F - 46.4 °F 93% 29.93 in 4.0 mi SE 4.6 mph - N/A   Mist
3:53 AM 46.4 °F 44.3 °F 46.4 °F 100% 29.93 in 1.8 mi SE 4.6 mph - N/A   Mostly Cloudy
4:13 AM 48.2 °F - 48.2 °F 100% 29.93 in 5.0 mi SE 6.9 mph - N/A   Scattered Clouds
4:32 AM 50.0 °F - 48.2 °F 94% 29.93 in 5.0 mi SE 5.8 mph - N/A   Scattered Clouds
4:53 AM 48.2 °F - 46.4 °F 93% 29.93 in 4.0 mi ESE 8.1 mph - N/A   Scattered Clouds
5:13 AM 48.2 °F - 48.2 °F 100% 29.93 in 5.0 mi SE 9.2 mph - N/A   Scattered Clouds
5:32 AM 48.2 °F - 48.2 °F 100% 29.93 in 7.0 mi SE 8.1 mph - N/A   Clear
5:53 AM 48.2 °F - 48.2 °F 100% 29.93 in 7.0 mi SE 8.1 mph - N/A   Scattered Clouds
6:13 AM 48.2 °F - 48.2 °F 100% 29.93 in 7.0 mi SE 8.1 mph - N/A   Clear
6:32 AM 48.2 °F - 48.2 °F 100% 29.93 in 7.0 mi ESE 9.2 mph - N/A   Clear
6:53 AM 50.0 °F - 48.2 °F 94% 29.92 in 7.0 mi ESE 10.4 mph - N/A   Scattered Clouds
7:13 AM 50.0 °F - 48.2 °F 94% 29.92 in 10.0 mi ESE 10.4 mph - N/A   Clear
7:32 AM 50.0 °F - 48.2 °F 94% 29.92 in 10.0 mi ESE 11.5 mph - N/A   Clear
7:53 AM 51.8 °F - 48.2 °F 88% 29.92 in 10.0 mi ESE 10.4 mph - N/A   Clear
8:13 AM 51.8 °F - 48.2 °F 88% 29.92 in 10.0 mi ESE 10.4 mph - N/A   Clear
8:32 AM 53.6 °F - 50.0 °F 88% 29.92 in 10.0 mi ESE 12.7 mph - N/A   Clear
8:53 AM 55.4 °F - 50.0 °F 82% 29.91 in 10.0 mi SE 15.0 mph - N/A   Clear
9:13 AM 57.2 °F - 50.0 °F 77% 29.91 in 7.0 mi SE 15.0 mph 19.6 mph N/A   Clear
9:32 AM 57.2 °F - 51.8 °F 82% 29.91 in 7.0 mi SE 16.1 mph 20.7 mph N/A   Clear
9:53 AM 60.8 °F - 51.8 °F 72% 29.91 in 7.0 mi SE 15.0 mph 19.6 mph N/A   Clear
10:13 AM 62.6 °F - 51.8 °F 68% 29.91 in 10.0 mi SE 17.3 mph 24.2 mph N/A   Clear
10:32 AM 62.6 °F - 51.8 °F 68% 29.91 in 10.0 mi SE 18.4 mph 24.2 mph N/A   Clear
10:53 AM 64.4 °F - 51.8 °F 64% 29.90 in 10.0 mi SE 16.1 mph 21.9 mph N/A   Clear
11:13 AM 66.2 °F - 51.8 °F 60% 29.90 in 10.0 mi SE 15.0 mph 21.9 mph N/A   Clear
11:32 AM 66.2 °F - 51.8 °F 60% 29.89 in 10.0 mi SE 17.3 mph 23.0 mph N/A   Clear
11:53 AM 68.0 °F - 53.6 °F 60% 29.88 in 10.0 mi SE 16.1 mph 21.9 mph N/A   Clear
12:12 PM 69.8 °F - 53.6 °F 56% 29.87 in 10.0 mi SSE 10.4 mph 21.9 mph N/A   Clear
12:33 PM 69.8 °F - 53.6 °F 56% 29.87 in 10.0 mi SE 12.7 mph 23.0 mph N/A   Clear
12:53 PM 71.6 °F - 53.6 °F 53% 29.86 in 10.0 mi SE 11.5 mph 21.9 mph N/A   Clear
1:12 PM 73.4 °F - 53.6 °F 50% 29.86 in 10.0 mi SE 17.3 mph 29.9 mph N/A   Clear
1:33 PM 73.4 °F - 53.6 °F 50% 29.85 in 10.0 mi SE 10.4 mph 20.7 mph N/A   Clear
1:53 PM 73.4 °F - 53.6 °F 50% 29.84 in 10.0 mi SE 13.8 mph 21.9 mph N/A   Clear
2:12 PM 73.4 °F - 53.6 °F 50% 29.84 in 10.0 mi SSE 10.4 mph 24.2 mph N/A   Clear
2:33 PM 75.2 °F - 51.8 °F 44% 29.84 in 10.0 mi SSE 12.7 mph 21.9 mph N/A   Clear
2:53 PM 75.2 °F - 51.8 °F 44% 29.83 in 10.0 mi SSE 11.5 mph 19.6 mph N/A   Clear
3:12 PM 75.2 °F - 53.6 °F 47% 29.83 in 10.0 mi SE 12.7 mph 18.4 mph N/A   Clear
3:33 PM 77.0 °F - 53.6 °F 44% 29.82 in 10.0 mi SE 12.7 mph 21.9 mph N/A   Clear
3:53 PM 77.0 °F - 53.6 °F 44% 29.82 in 10.0 mi SSE 10.4 mph 20.7 mph N/A   Clear
4:12 PM 78.8 °F - 53.6 °F 42% 29.81 in 10.0 mi SE 12.7 mph 18.4 mph N/A   Clear
4:33 PM 78.8 °F - 53.6 °F 42% 29.81 in 10.0 mi SE 16.1 mph 21.9 mph N/A   Clear
4:53 PM 77.0 °F - 53.6 °F 44% 29.80 in 10.0 mi SE 15.0 mph 21.9 mph N/A   Clear
5:12 PM 77.0 °F - 53.6 °F 44% 29.80 in 10.0 mi SE 15.0 mph 19.6 mph N/A   Clear
5:33 PM 77.0 °F - 53.6 °F 44% 29.80 in 10.0 mi SE 12.7 mph 19.6 mph N/A   Clear
5:53 PM 75.2 °F - 55.4 °F 50% 29.80 in 10.0 mi SE 11.5 mph 20.7 mph N/A   Clear
6:12 PM 75.2 °F - 55.4 °F 50% 29.81 in 10.0 mi SE 11.5 mph 20.7 mph N/A   Clear
6:32 PM 73.4 °F - 55.4 °F 53% 29.81 in 10.0 mi SE 12.7 mph - N/A   Clear
6:53 PM 71.6 °F - 55.4 °F 57% 29.81 in 10.0 mi SE 11.5 mph - N/A   Clear
7:12 PM 71.6 °F - 55.4 °F 57% 29.81 in 10.0 mi SE 12.7 mph - N/A   Clear
7:32 PM 69.8 °F - 55.4 °F 60% 29.82 in 10.0 mi SE 11.5 mph - N/A   Scattered Clouds
7:53 PM 68.0 °F - 55.4 °F 64% 29.82 in 10.0 mi SE 11.5 mph - N/A   Scattered Clouds
8:13 PM 68.0 °F - 55.4 °F 64% 29.83 in 10.0 mi SE 10.4 mph - N/A   Clear
8:32 PM 66.2 °F - 55.4 °F 68% 29.83 in 10.0 mi SE 11.5 mph 16.1 mph N/A   Scattered Clouds
8:53 PM 66.2 °F - 55.4 °F 68% 29.83 in 10.0 mi SE 12.7 mph 16.1 mph N/A   Scattered Clouds
9:13 PM 66.2 °F - 55.4 °F 68% 29.83 in 10.0 mi SE 10.4 mph 16.1 mph N/A   Clear
9:32 PM 66.2 °F - 55.4 °F 68% 29.83 in 10.0 mi SE 10.4 mph 17.3 mph N/A   Unknown
9:53 PM 64.4 °F - 55.4 °F 73% 29.84 in 10.0 mi SE 11.5 mph - N/A   Unknown
10:12 PM 64.4 °F - 55.4 °F 73% 29.84 in 10.0 mi SE 11.5 mph 17.3 mph N/A   Clear
10:33 PM 64.4 °F - 55.4 °F 73% 29.84 in 10.0 mi SE 11.5 mph 17.3 mph N/A   Clear
10:53 PM 64.4 °F - 55.4 °F 73% 29.84 in 10.0 mi SE 10.4 mph - N/A   Clear
11:12 PM 64.4 °F - 55.4 °F 73% 29.84 in 10.0 mi SE 10.4 mph - N/A   Clear
11:33 PM 64.4 °F - 55.4 °F 73% 29.84 in 10.0 mi SSE 9.2 mph - N/A   Clear
11:53 PM 64.4 °F - 55.4 °F 73% 29.84 in 10.0 mi SSE 9.2 mph - N/A   Clear